Find Starlink 31422

NORAD ID: 59354 Int'l Des: 2024-060 Owner: SPXS Country: US Constellation: starlink operational
LEOCIRCULAR

リアルタイム位置

3D地球を読み込み中...

Starlink 31422について

説明を読み込み中...

次回通過

Passes for default location (London). Set your location on the main map for personalized predictions.

高度履歴

Loading altitude history...

軌道要素

1 59354U 24060G 26126.91866513 .00000035 00000-0 10788-4 0 9990
2 59354 43.0043 291.4048 0001576 273.8591 86.2080 15.27571175118964
Epoch: May 6, 2026 • Age: 12 hours

現在のステータス

高度 484.7 km
速度 7.63 km/s
衛星直下点 30.91°N, 59.68°E
打ち上げ日 Mar 31, 2024
運用期間 2 years
タイプ internet

技術仕様

分類 Payload
質量 730.00 kg
乾燥質量 700.00 kg
総質量 730.00 kg
長さ 0.30 m
直径 4.10 m
スパン 29.00 m
形状 Box + pan
製造者 SPXS
バスタイプ Starlink V2M
フェーズステータス In Orbit
所有者/国 SPXS/US

Most Searched